Погода в Кемптон-Парке

ЮАР     26°05′54″S   28°14′06″E
темп.,
°C
ветер,
м/с
пор.,
м/с
влажн.,
%
обл.,
%
осадки,
мм/ч
давл.,
гПа
погр.,
м
17 августа, ср
ср1723:00+13з38345 0.0 1021322
02:00+12зсз24379 0.0 1020106
05:00+11сз224011 0.0 101945
08:00+12ссз25386 0.0 1019192
11:00+18сз47225 0.0 1017596
14:00+22зсз571611 0.0 10131509
17:00+21зсз58164 0.0 10121711
20:00+18сз27211 0.0 1014254
18 августа, чт
чт1823:00+16сз23230 0.0 101542
02:00+15ссз11250 0.0 101312
05:00+14ссз26270 0.0 1013172
08:00+15ссз311240 0.0 1014434
11:00+21сз715165 0.0 10121415
14:00+24сз817100 0.0 10082680
17:00+23сз61490 0.0 10072529
20:00+19з51011100 0.0 1010717
19 августа, пт
пт1923:00+16юз5916100 0.0 1012700
02:00+12ююз61129100 0.0 1012580
05:00+9ююз5104497 0.0 1014487
08:00+9юз48429 0.0 1016680
11:00+11юз693273 0.0 10181753
14:00+13юз711233 0.0 10162141
17:00+13ююз710233 0.0 10161722
20:00+12ююз511296 0.0 10191223
20 августа, сб
сб2023:00+10ююз510403 0.0 1020983
02:00+9ююз4103971 0.0 1021807
05:00+8ююз6144345 0.0 1021619
08:00+9ююз615392 0.0 1022528
11:00+13юз611190 0.0 1021879
14:00+17юз710110 0.0 10181368
17:00+16ююз68140 0.0 10201444
20:00+13ю47200 0.0 1024971
21 августа, вс
вс2123:00+11ю37250 0.0 1025655
02:00+10ю38290 0.0 1025399
05:00+9ююв37320 0.0 1026274
08:00+10юв23290 0.0 1027239
11:00+15ссв32190 0.0 10261034
14:00+17ссз33160 0.0 10231382
17:00+18сз33140 0.0 10221619
20:00+15зсз25180 0.0 1024244